Weather in Kargat

Russia / Novosibirsk Oblast     55°11′40″N   80°16′58″E
temp.,
°C
wind,
m/s
gust,
m/s
humid.,
%
clouds,
%
prec.,
mm/h
press.,
hPa
HPBL,
m
11 may, tue
tue1101:00+8nne4116555 0.0 1020290
04:00+8nne51164100 0.0 1018306
07:00+8nne496988 0.0 1019254
10:00+14nne695085 0.0 1018658
13:00+17ne7935100 0.0 10182575
16:00+18nne673294 0.0 10182533
19:00+17nne673880 0.0 10192327
22:00+13nne375319 0.0 1021179
12 may, wed
wed1201:00+10n49635 0.0 1021148
04:00+8n37685 0.0 1021108
07:00+9n35694 0.0 1021124
10:00+15nnw44475 0.0 1021602
13:00+17nw4335100 0.0 10201873
16:00+19nnw4427100 0.0 10182200
19:00+18nw3425100 0.0 10181820
22:00+14ssw113698 0.0 101711
13 may, thu
thu1301:00+13ssw2238100 0.0 101619
04:00+11w3464100 0.0 101566
07:00+11nne4878100 0.1 1015371
10:00+10nnw4693100 2.7 1016382
13:00+11n467297 3.0 1017560
16:00+14nnw764984 0.0 10171487
19:00+14n3648100 0.0 10161165
22:00+11nw22545 0.0 101716
14 may, fri
fri1401:00+9nw335042 0.0 101734
04:00+10nw345387 0.0 101868
07:00+8n5107869 0.0 1020434
10:00+10nnw6768100 0.0 1022949
13:00+13nnw683681 0.0 10221242
16:00+15nnw672633 0.0 10231368
19:00+15nnw572653 0.0 10231350
22:00+11wsw223868 0.0 102313
15 may, sat
sat1501:00+11sw473958 0.0 1023121
04:00+9sw4114843 0.0 1022163
07:00+10wsw5135199 0.0 1022273
10:00+17wsw71140100 0.0 1021581
13:00+14sw4106662 0.5 1020296
16:00+23w57395 0.0 10181749
19:00+23sw453910 0.0 1017973
22:00+19w6135780 0.1 1017356